IU3OVK-13 Weather Reports


time (UTC)temp
C
wind
direction
speed
KPH
gust
KPH
rain 1hr
cm
rain 24hr
cm
rain mn
cm
humidity
%
barometer
mb
20260506220929 12 0.0 0.0 0.00 0.00 0.00 99 1005.2
20260506215909 12 0.0 0.0 0.00 0.00 0.00 99 1005.2
20260506214849 12 0.0 0.0 0.00 0.00 0.00 99 1005.1
20260506212858 12 0.0 0.0 0.00 0.00 0.00 99 1004.9
20260506212809 12 0.0 0.0 0.00 0.00 0.00 99 1004.9
20260506211748 11 0.0 0.0 0.00 0.00 0.00 99 1005.2
20260506210728 12 0.0 0.0 0.00 0.00 0.00 99 1005.2
20260506205708 12 0.0 0.0 0.00 0.00 0.00 99 1005.1
20260506204648 12 0.0 0.0 0.00 0.00 0.00 99 1005.0
20260506203714 12 0.0 0.0 0.00 0.00 0.00 99 1004.7
20260506203629 12 0.0 0.0 0.00 0.00 0.00 99 1004.7
20260506200528 12 0.0 0.0 0.00 0.00 0.00 99 1004.2
20260506194447 12 0.0 0.0 0.00 0.00 0.00 99 1004.1
20260506184247 13 0.0 0.0 0.00 0.00 0.00 99 1003.5
20260506183226 13 0.0 0.0 0.00 0.00 0.00 99 1003.4
20260506181146 14 0.0 0.0 0.00 0.00 0.00 99 1003.2
20260506175106 15 0.0 0.0 0.00 0.00 0.00 99 1003.3
20260506174045 15 0.0 0.0 0.00 0.00 0.00 99 1003.2
20260506173025 15 0.0 0.0 0.00 0.00 0.00 99 1003.0
20260506172005 16 0.0 0.0 0.00 0.00 0.00 99 1002.8
20260506165925 15 0.0 0.0 0.00 0.00 0.00 99 1002.7
20260506164905 15 0.0 0.0 0.00 0.00 0.00 99 1002.8
20260506161804 15 0.0 0.0 0.00 0.00 0.00 99 1003.0
20260506160744 15 0.0 0.0 0.00 0.00 0.00 99 1002.9
20260506153644 15 0.0 0.0 0.00 0.00 0.00 99 1002.8
20260506152623 15 0.0 0.0 0.00 0.00 0.00 99 1002.9
20260506151603 14 0.0 0.0 0.00 0.00 0.00 99 1002.9
20260506150543 13 0.0 0.0 0.00 0.00 0.00 99 1003.0
20260506145523 13 0.0 0.0 0.00 0.00 0.00 99 1003.4
20260506144503 14 0.0 0.0 0.00 0.00 0.00 99 1003.3
20260506142422 13 0.0 0.0 0.00 0.00 0.00 99 1003.1
20260506141402 14 0.0 0.0 0.00 0.00 0.00 99 1003.1
20260506140342 14 0.0 0.0 0.00 0.00 0.00 99 1003.0
20260506135322 14 0.0 0.0 0.00 0.00 0.00 99 1003.4
20260506134302 15 0.0 0.0 0.00 0.00 0.00 99 1003.5
20260506132222 15 0.0 0.0 0.00 0.00 0.00 99 1003.6
20260506131201 15 0.0 0.0 0.00 0.00 0.00 99 1004.0
20260506130141 15 0.0 0.0 0.00 0.00 0.00 99 1003.9
20260506125121 15 0.0 0.0 0.00 0.00 0.00 99 1004.1
20260506124101 16 0.0 0.0 0.00 0.00 0.00 99 1004.2
20260506123041 18 0.0 0.0 0.00 0.00 0.00 99 1004.1
20260506122021 17 0.0 0.0 0.00 0.00 0.00 99 1004.6
20260506115941 20 0.0 0.0 0.00 0.00 0.00 99 1004.0
20260506114920 17 0.0 0.0 0.00 0.00 0.00 99 1004.2
20260506113901 17 0.0 0.0 0.00 0.00 0.00 99 1004.6
20260506112840 17 0.0 0.0 0.00 0.00 0.00 99 1004.4
20260506111820 18 0.0 0.0 0.00 0.00 0.00 99 1004.5
20260506110800 18 0.0 0.0 0.00 0.00 0.00 99 1004.1
20260506104719 15 0.0 0.0 0.00 0.00 0.00 99 1004.7
20260506102639 13 0.0 0.0 0.00 0.00 0.00 99 1004.7
20260506101620 14 0.0 0.0 0.00 0.00 0.00 99 1004.5
20260506100559 13 0.0 0.0 0.00 0.00 0.00 99 1004.8
20260506093458 15 0.0 0.0 0.00 0.00 0.00 99 1004.4
20260506092438 15 0.0 0.0 0.00 0.00 0.00 99 1004.3
20260506091418 13 0.0 0.0 0.00 0.00 0.00 99 1004.4
20260506090358 14 0.0 0.0 0.00 0.00 0.00 99 1004.2
20260506084318 13 0.0 0.0 0.00 0.00 0.00 99 1004.3
20260506083258 12 0.0 0.0 0.00 0.00 0.00 99 1004.1
20260506073057 12 0.0 0.0 0.00 0.00 0.00 99 1004.9
20260506072037 12 0.0 0.0 0.00 0.00 0.00 99 1004.8
20260506061836 12 0.0 0.0 0.00 0.00 0.00 99 1004.4
20260506060816 12 0.0 0.0 0.00 0.00 0.00 99 1004.5
20260506014847 12 0.0 0.0 0.00 0.00 0.00 99 1006.3
20260506013827 11 0.0 0.0 0.00 0.00 0.00 99 1006.8
20260506012807 12 0.0 0.0 0.00 0.00 0.00 99 1006.7
20260506011747 11 0.0 0.0 0.00 0.00 0.00 99 1007.0
20260506010726 11 0.0 0.0 0.00 0.00 0.00 99 1006.4
20260506004646 11 0.0 0.0 0.00 0.00 0.00 99 1006.7
20260506002606 12 0.0 0.0 0.00 0.00 0.00 99 1006.5
20260506001546 12 0.0 0.0 0.00 0.00 0.00 99 1006.9
20260506000525 12 0.0 0.0 0.00 0.00 0.00 99 1007.2
20260505234445 11 0.0 0.0 0.00 0.00 0.00 99 1007.9
20260505233425 11 0.0 0.0 0.00 0.00 0.00 99 1007.8
20260505232405 11 0.0 0.0 0.00 0.00 0.00 99 1007.7